Regional Weather Roundup
Issued by NWS

Home | Current Version | Previous Version | Text Only | Print | Product List | Glossary Off
Versions: 1 2 3 4 5 6 7 8 9 10 11 12 13 14 15 16 17 18 19 20 21 22 23 24 25 26 27 28 29 30 31 32 33 34 35 36 37 38 39 40 41 42 43 44 45 46 47 48 49 50

000
ASUS45 KABQ 180310
RWRNM
WEATHER ROUNDUP FOR NEW MEXICO
NATIONAL WEATHER SERVICE ALBUQUERQUE NM
800 PM MST WED DEC 17 2014

NOTE: "FAIR" MEANS FEW OR NO CLOUDS BELOW 12,000 FEET AGL WITH NO
       SIGNIFICANT WEATHER OR OBSTRUCTIONS TO VISION.

      THIS PRODUCT IS RELEASED AS TWO VERSIONS.  ONE VERSION NEAR
      THE TOP OF THE HOUR CONTAINING PRELIMINARY DATA FROM ALBUQUERQUE
      AND OTHER STATIONS.  A FINAL VERSION WITH ADDITIONAL DATA IS
      ISSUED ABOUT 10 MINUTES AFTER THE HOUR.

NMZ501-503-504-510>518-180400-
NORTHWEST PLATEAU/NORTHCENTRAL MOUNTAINS

CITY           SKY/WX    TMP DP  RH WIND       PRES   REMARKS
FARMINGTON     LGT RAIN  35  33  92 W7        30.04R WCI  29
LOS ALAMOS     FOG       30  30 100 CALM      30.03R VSB 1/4
SANTA FE       FOG       33  32  96 W13       30.03R VSB 1/2 WCI  24
TAOS           CLOUDY    30  27  86 CALM      30.02R
ANGEL FIRE     LGT SNOW  28  25  89 S3        29.99R

$$
NMZ402-403-502-505>509-180400-
WESTCENTRAL MOUNTAINS/SOUTHWEST MOUNTAINS

CITY           SKY/WX    TMP DP  RH WIND       PRES   REMARKS
GALLUP         MOCLDY    32  29  88 S7        30.08R WCI  26
GRANTS         PTCLDY    28  25  88 CALM      30.09R
SILVER CITY    MOCLDY    37  36  93 N7        30.14S WCI  32

$$
NMZ407-409-411-412-180400-
SOUTHERN DESERTS

CITY           SKY/WX    TMP DP  RH WIND       PRES   REMARKS
LORDSBURG      LGT RAIN  43  37  81 NW9       30.13R
DEMING         PTCLDY    41  38  89 W7        30.12R
LAS CRUCES     CLEAR     42  36  76 W9        30.12R
HOLLOMAN AFB   MOCLDY    49  33  54 S12       30.08R
ALAMOGORDO     CLOUDY    46  32  57 S7        30.10R
T OR C         CLEAR     42  26  53 W7        30.08R

$$
NMZ519>523-180400-
CENTRAL VALLEYS/CENTRAL HIGHLANDS

CITY           SKY/WX    TMP DP  RH WIND       PRES   REMARKS
ALBUQUERQUE    MOCLDY    38  35  89 SW5       30.07R WCI  34
DOUBLE EAGLE   PTCLDY    34  32  93 S6        30.06S WCI  29
MORIARTY ARPT  FAIR      33  31  94 SW5       30.06R WCI  28
CLINES CORNERS FOG       32  31  96 W15       30.00S VSB 1/2 WCI  22
BELEN          MOCLDY    37  35  93 S6        30.08R WCI  32
SOCORRO        FAIR      42  31  63 NW13      30.07R

$$
NMZ524>526-539-540-180400-
SOUTHCENTRAL MOUNTAINS

CITY           SKY/WX    TMP DP  RH WIND       PRES   REMARKS
RUIDOSO        MOCLDY    36  28  75 SW10      30.10R WCI  28

$$
NMZ527>531-180400-
NORTHEAST HIGHLANDS/NORTHEAST PLAINS

CITY           SKY/WX    TMP DP  RH WIND       PRES   REMARKS
LAS VEGAS      MOCLDY    34  25  69 SW13      29.98R WCI  25
RATON          CLOUDY    27  21  78 N3        29.94R
CLAYTON        CLOUDY    33  29  85 NE8       29.96R WCI  26

$$
NMZ532>537-180400-
EASTCENTRAL PLAINS

CITY           SKY/WX    TMP DP  RH WIND       PRES   REMARKS
TUCUMCARI      CLEAR     48  32  53 W17       29.94R
CANNON AFB     CLEAR     44  29  56 W10       29.99R
CLOVIS AIRPORT CLEAR     43  27  52 W13       29.99R

$$
NMZ028-029-538-180400-
SOUTHEAST PLAINS

CITY           SKY/WX    TMP DP  RH WIND       PRES   REMARKS
ROSWELL        PTCLDY    47  30  51 NW5       30.03R
ARTESIA        CLEAR     50  32  50 W13       30.05R
CARLSBAD       CLEAR     46  29  51 E5        30.02R
HOBBS          CLEAR     48  28  46 W12       30.04S


$$



USA.gov is the U.S. government's official web portal to all federal, state and local government web resources and services.